Location: Stony Creek
(40.9500°S, 175.8500°E)
Time: 08:51:00
(UTC+00:00)

SMAP - Pass Details

Date: 15 May 2026
Orbit: 681 x 683 km, 98.1° (Epoch: 9 June)

Event Time Altitude Azimuth Distance (km) Brightness Sun altitude
Rises 18:35:42 0° 343° (NNW) 3,036 6.4 -8.2°
Reaches altitude 10° 18:38:16 10° 330° (NNW) 2,131 5.5 -7.7°
Maximum altitude 18:42:06 25° 275° (W) 1,387 4.1 -7.1°
Drops below altitude 10° 18:45:59 10° 219° (SW) 2,157 5.1 -6.4°
Sets 18:48:36 0° 206° (SSW) 3,083 6.0 -5.9°
